This demonstration page uses our WeatherBlox Daily Observations layout. Learn more.

Left ArrowRight Arrow

39.01783, -85.05884

Hourly Observations for March 25, 2022

Temp ( °F °C ) Dew Point ( °F °C ) Humidity (%) Winds ( mph kmh ) Pressure ( in mb ) Visibility ( mi km ) Precip ( " mm )
12:52 am 00:52 Mostly Clear 42 5.6 33 0.6 71 71 WSW 5 7 29.84 1010 10 16 0.00 0.00
1:52 am 01:52 Clear 41 5 33 0.6 73 73 WSW 5 7 29.83 1010 10 16 0.00 0.00
2:52 am 02:52 Mostly Clear 39 3.9 34 1.1 82 82 SW 5 7 29.82 1010 10 16 0.00 0.00
3:52 am 03:52 Mostly Cloudy 39 3.9 35 1.7 86 86 SSW 5 7 29.80 1009 10 16 0.00 0.00
4:52 am 04:52 Cloudy 41 5 36 2.2 82 82 WSW 5 7 29.80 1009 10 16 0.00 0.00
5:52 am 05:52 Mostly Cloudy 42 5.6 37 2.8 82 82 W 8 13 29.79 1009 10 16 0.00 0.00
6:52 am 06:52 Cloudy 42 5.6 37 2.8 82 82 W 6 9 29.80 1009 10 16 0.00 0.00
7:52 am 07:52 Cloudy 42 5.6 37 2.8 82 82 SW 6 9 29.81 1009 10 16 0.00 0.00
8:52 am 08:52 Cloudy 42 5.6 36 2.2 79 79 W 15 24 29.82 1010 10 16 0.00 0.00
9:21 am 09:21 Mostly Cloudy 42 5.6 33 0.6 71 71 W 12 19 29.85 1011 10 16 0.00 0.00
9:52 am 09:52 Partly Cloudy 45 7.2 33 0.6 63 63 W 13 20 29.81 1010 10 16 0.00 0.00
10:52 am 10:52 Cloudy 43 6.1 32 0 65 65 W 18 30 29.82 1010 10 16 0.00 0.00
11:52 am 11:52 Cloudy 43 6.1 32 0 65 65 WSW 12 19 29.82 1010 10 16 0.00 0.00
12:52 pm 12:52 Cloudy 44 6.7 33 0.6 65 65 W 14 22 29.81 1010 10 16 0.00 0.00
1:35 pm 13:35 Cloudy 45 7.2 33 0.6 63 63 SW 14 22 29.82 1010 10 16 0.00 0.00
1:52 pm 13:52 Cloudy 45 7.2 33 0.6 63 63 W 15 24 29.80 1009 10 16 0.00 0.00
2:52 pm 14:52 Cloudy 45 7.2 34 1.1 66 66 WSW 13 20 29.80 1009 10 16 0.00 0.00
3:06 pm 15:06 Cloudy 44 6.7 34 1.1 68 68 WSW 13 20 29.81 1010 10 16 0.00 0.00
3:52 pm 15:52 Cloudy 44 6.7 36 2.2 73 73 WSW 16 26 29.79 1009 10 16 0.00 0.00
4:52 pm 16:52 Cloudy 44 6.7 38 3.3 79 79 WSW 17 28 29.80 1009 10 16 0.00 0.00
5:03 pm 17:03 Cloudy with Drizzle 44 6.7 37 2.8 76 76 WSW 17 28 29.81 1010 9 14 0.00 0.00
5:20 pm 17:20 Cloudy with Light Rain 44 6.7 38 3.3 79 79 WSW 14 22 29.81 1010 9 14 0.00 0.00
5:52 pm 17:52 Cloudy 44 6.7 38 3.3 79 79 WSW 14 22 29.78 1009 10 16 0.00 0.00
6:52 pm 18:52 Cloudy with Drizzle 43 6.1 39 3.9 86 86 WSW 12 19 29.79 1009 9 14 0.00 0.00
7:52 pm 19:52 Cloudy 43 6.1 39 3.9 86 86 WSW 14 22 29.79 1009 10 16 0.00 0.00
8:52 pm 20:52 Cloudy 43 6.1 39 3.9 86 86 SW 16 26 29.78 1009 10 16 0.00 0.00
9:05 pm 21:05 Cloudy with Light Rain 44 6.7 39 3.9 83 83 SW 13 20 29.81 1010 10 16 0.00 0.00
9:52 pm 21:52 Cloudy 42 5.6 40 4.4 92 92 WSW 10 17 29.78 1009 10 16 0.01 0.25
10:35 pm 22:35 Cloudy with Heavy Rain 42 5.6 40 4.4 92 92 W 32 52 29.85 1011 3 5 0.00 0.00
10:52 pm 22:52 Cloudy with Light Rain 40 4.4 37 2.8 89 89 W 20 31 29.81 1010 7 11 0.05 1.27
11:52 pm 23:52 Mostly Cloudy 39 3.9 37 2.8 93 93 WSW 8 13 29.80 1009 10 16 0.01 0.25

Powered by AerisWeather